Location: ActonStarParty
(42.4766°N, 71.4538°W)
Time: 07:55:34
(UTC-04:00)

Cosmos 1892 - Pass Details

Date: 19 April 2018
Orbit: 505 x 527 km, 82.5° (Epoch: 25 May)

Event Time Altitude Azimuth Distance (km) Brightness Sun altitude
Rises 20:37:24 0° 351° (N) 2,675 6.9 -11.9°
Reaches altitude 10° 20:39:34 10° 352° (N) 1,780 5.9 -12.3°
Maximum altitude 20:43:29 90° 89° (E) 532 2.7 -12.9°
Drops below altitude 10° 20:47:21 10° 173° (S) 1,757 5.0 -13.5°
Enters shadow 20:47:34 - 173° (S) 1,849 5.2 -13.6°
